Probability
0 0 0 0 0 0 0 0 0 0 0 0 0 0 3 23 26 42 61 84 84 90 90 87 90 90 94 94 87 81 84 81 77 77 87 90 94 87 90 94 81 84 84 87
0 0 0 0 0 0 0 0 0 0 0 0 0 0 13 26 32 45 55 81 87 94 94 87 87 87 87 87 84 84 87 87 87 84 84 90 87 90 77 81 87 87 77 87
0 0 0 0 0 0 0 0 0 0 0 0 0 0 10 26 39 48 55 81 87 97 94 87 84 84 81 84 81 74 74 81 81 81 84 71 84 74 61 71 74 77 77 77
0 0 0 0 0 0 0 0 0 0 0 0 0 0 3 26 35 55 52 61 77 97 90 87 84 84 84 81 77 74 74 74 71 74 61 58 58 45 48 68 74 77 74 77
0 0 0 0 0 0 0 0 0 0 0 0 0 0 3 19 23 26 42 52 65 65 81 81 81 81 77 71 74 74 77 74 71 74 68 65 55 48 48 55 65 68 77 74
0 0 0 0 0 0 0 0 0 0 0 0 0 0 3 10 19 19 35 48 58 65 68 65 81 81 71 71 68 68 77 77 71 68 61 58 55 52 45 48 45 52 58 68
0 0 0 0 0 0 0 0 0 0 0 0 0 0 3 13 23 19 32 39 52 58 68 68 74 74 71 68 65 58 71 71 71 55 52 48 42 48 48 52 48 45 39 42
0 0 0 0 0 0 0 0 0 0 0 0 0 0 10 10 19 23 26 42 45 48 68 74 84 77 65 65 61 68 68 68 61 48 48 52 48 58 55 52 42 48 45 42
0 0 0 0 0 0 0 0 0 0 0 0 0 3 13 26 19 26 29 39 55 45 68 77 77 74 68 61 61 52 68 65 58 42 48 39 39 39 39 48 52 39 45 39
0 0 0 0 0 0 0 0 0 0 0 0 0 0 3 29 29 23 32 48 48 68 74 71 77 65 65 65 58 55 52 61 55 52 48 39 45 42 48 42 39 42 45 39
0 0 0 0 0 0 0 0 0 0 0 0 0 0 6 19 23 23 19 42 55 55 65 68 71 68 65 52 48 55 52 58 61 48 45 48 52 45 48 42 39 39 45 45
0 0 0 0 0 0 0 0 0 0 0 0 0 3 13 19 26 26 35 48 61 65 65 58 61 58 61 55 52 48 48 45 48 48 48 52 45 48 45 42 35 35 42 39
0 0 0 0 0 0 0 0 0 0 0 0 0 3 19 32 29 35 45 52 61 61 61 58 58 65 61 55 55 55 48 45 45 48 52 52 45 45 42 39 39 39 39 42
0 0 0 0 0 0 0 3 3 0 0 0 0 3 23 32 39 52 48 52 58 61 61 58 61 68 55 52 58 52 48 48 39 48 48 48 42 39 35 32 32 32 35 32
0 0 0 0 0 0 0 0 3 0 0 0 0 3 19 42 45 55 55 58 61 68 65 55 55 65 61 58 58 52 48 48 45 45 39 39 42 45 39 32 35 29 32 29
0 0 0 0 0 0 0 0 0 0 0 0 3 3 32 48 52 65 61 61 68 65 61 55 61 58 58 58 58 52 45 52 42 42 26 26 35 39 42 32 32 29 35 35
0 3 0 0 0 0 0 0 0 0 0 3 3 19 42 55 52 61 61 61 58 58 55 58 61 58 65 61 58 52 48 45 45 42 35 35 35 32 29 19 23 29 32 32
3 6 3 0 0 0 0 6 6 6 10 13 23 35 48 52 58 65 58 55 52 45 48 48 48 58 52 48 58 52 45 39 42 45 39 32 35 35 35 29 29 29 32 29
3 0 0 0 0 0 0 3 6 6 10 19 29 42 48 58 52 48 48 48 45 45 45 48 48 58 45 42 48 55 52 42 42 35 32 35 32 39 39 32 32 35 29 26
10 3 0 0 0 0 0 3 6 10 16 32 42 48 48 55 52 42 45 42 39 35 32 32 35 45 45 39 45 55 52 55 42 42 39 32 32 35 32 29 29 29 29 26
0 0 0 0 0 0 3 3 3 3 29 39 29 45 55 55 58 48 35 35 32 26 26 26 35 42 42 39 32 42 39 45 48 48 48 39 35 35 32 32 32 26 23 23
0 0 0 0 0 0 6 3 10 29 39 35 35 48 55 45 42 35 32 23 23 23 19 19 26 26 26 26 26 29 42 35 48 42 32 26 35 19 16 29 26 23 19 13
0 0 0 0 0 10 3 13 16 19 35 42 42 42 39 32 29 23 23 19 16 19 19 16 16 16 19 23 29 26 26 32 35 26 26 23 23 16 13 16 19 19 16 10
0 0 0 6 6 6 6 6 13 19 23 26 35 26 19 23 19 13 13 16 13 13 16 16 16 16 19 13 10 13 19 16 16 10 10 10 6 6 3 3 3 3 3 3
0 0 3 6 6 6 10 13 19 23 23 19 16 13 19 13 6 3 6 6 6 10 10 3 10 13 13 10 6 10 6 3 3 6 3 3 3 3 3 0 0 0 0 0
0 0 0 0 10 10 10 16 16 13 16 19 10 6 3 0 0 0 0 6 6 6 6 3 3 3 6 3 3 3 3 3 0 0 0 3 3 0 0 0 0 0 0 0
Height
5867 5870 5872 5875 5876 5878 5880 5881 5881 5882 5882 5884 5885 5886 5886 5886 5886 5886 5886 5885 5885 5884 5883 5882 5881 5880 5878 5877 5875 5874 5872 5872 5871 5872 5873 5873 5875 5876 5877 5879 5881 5882 5883 5885
5863 5865 5868 5869 5871 5873 5875 5877 5878 5878 5879 5881 5882 5882 5883 5883 5883 5883 5883 5883 5882 5881 5881 5880 5878 5877 5876 5874 5872 5871 5869 5867 5867 5868 5868 5869 5871 5873 5874 5876 5877 5878 5880 5882
5857 5860 5862 5864 5867 5869 5871 5873 5874 5875 5876 5877 5879 5880 5880 5880 5880 5880 5880 5879 5879 5878 5877 5877 5875 5874 5872 5871 5869 5867 5865 5864 5864 5864 5864 5865 5867 5869 5870 5872 5873 5875 5877 5879
5850 5853 5856 5859 5862 5864 5866 5868 5870 5871 5873 5875 5876 5879 5877 5877 5877 5877 5876 5876 5875 5875 5874 5873 5872 5870 5869 5867 5865 5863 5862 5861 5860 5860 5860 5861 5862 5864 5866 5867 5869 5871 5872 5875
5845 5848 5851 5854 5858 5859 5862 5864 5866 5867 5869 5871 5872 5875 5876 5873 5874 5874 5873 5872 5872 5871 5870 5869 5868 5867 5865 5863 5862 5859 5858 5857 5856 5856 5856 5857 5858 5860 5862 5863 5865 5867 5869 5871
5839 5843 5846 5849 5852 5854 5857 5860 5862 5864 5866 5868 5869 5871 5873 5871 5870 5870 5869 5869 5868 5867 5866 5865 5864 5863 5861 5860 5857 5855 5854 5853 5853 5853 5853 5853 5855 5856 5858 5860 5861 5863 5865 5867
5834 5837 5841 5844 5847 5850 5853 5857 5859 5861 5863 5865 5865 5866 5868 5867 5866 5866 5866 5865 5864 5863 5862 5861 5860 5859 5858 5855 5853 5851 5850 5849 5849 5849 5850 5850 5851 5852 5854 5856 5858 5860 5862 5864
5829 5833 5836 5839 5843 5846 5849 5853 5857 5860 5861 5862 5860 5862 5864 5862 5862 5862 5862 5861 5860 5860 5859 5858 5857 5856 5854 5852 5850 5849 5848 5847 5846 5847 5847 5847 5848 5850 5851 5852 5854 5856 5858 5860
5824 5828 5831 5834 5837 5841 5844 5847 5852 5855 5856 5858 5858 5858 5859 5858 5858 5858 5858 5857 5857 5856 5856 5855 5854 5852 5851 5849 5848 5846 5845 5845 5844 5844 5844 5844 5846 5847 5847 5848 5850 5852 5854 5856
5818 5822 5825 5828 5831 5835 5839 5842 5846 5849 5852 5854 5855 5855 5856 5854 5855 5855 5854 5853 5853 5853 5852 5852 5851 5850 5848 5847 5846 5845 5844 5844 5843 5842 5842 5843 5843 5844 5844 5845 5846 5848 5850 5852
5813 5818 5821 5824 5827 5831 5834 5838 5841 5845 5848 5851 5853 5855 5851 5851 5851 5851 5851 5850 5850 5849 5849 5849 5848 5848 5846 5845 5844 5844 5843 5842 5842 5841 5841 5841 5841 5841 5842 5842 5843 5844 5846 5848
5808 5813 5816 5820 5823 5825 5829 5833 5836 5840 5842 5845 5849 5852 5847 5847 5847 5848 5847 5847 5846 5846 5846 5846 5846 5846 5845 5844 5843 5842 5841 5841 5840 5839 5839 5838 5838 5838 5839 5839 5840 5841 5842 5844
5803 5808 5812 5815 5819 5822 5824 5828 5831 5835 5838 5840 5844 5847 5843 5843 5844 5844 5844 5844 5843 5843 5843 5843 5843 5843 5843 5842 5841 5840 5840 5839 5838 5837 5837 5836 5836 5836 5836 5836 5837 5838 5839 5840
5799 5803 5809 5814 5815 5817 5820 5824 5827 5830 5833 5836 5839 5840 5839 5839 5840 5840 5841 5841 5841 5841 5841 5841 5841 5841 5840 5840 5839 5838 5838 5837 5836 5836 5835 5834 5834 5834 5833 5834 5834 5835 5836 5837
5793 5798 5803 5807 5810 5813 5816 5819 5822 5825 5829 5832 5834 5834 5835 5835 5836 5837 5837 5837 5838 5838 5838 5838 5838 5838 5838 5837 5837 5836 5836 5835 5834 5834 5833 5832 5832 5831 5831 5831 5831 5832 5833 5834
5788 5793 5798 5801 5804 5808 5811 5814 5817 5820 5823 5826 5828 5830 5830 5831 5832 5833 5833 5834 5834 5835 5835 5836 5835 5835 5835 5835 5834 5833 5833 5833 5832 5831 5831 5830 5829 5829 5828 5828 5828 5828 5829 5830
5783 5788 5793 5797 5800 5803 5806 5809 5812 5815 5818 5821 5823 5825 5826 5827 5828 5829 5830 5830 5831 5831 5832 5832 5832 5832 5832 5832 5831 5831 5830 5830 5830 5829 5828 5828 5827 5827 5826 5825 5824 5824 5824 5825
5778 5783 5788 5792 5795 5799 5803 5804 5807 5810 5813 5815 5817 5819 5821 5822 5823 5824 5825 5826 5827 5827 5828 5828 5828 5828 5828 5828 5828 5828 5827 5827 5827 5826 5826 5825 5825 5824 5823 5822 5821 5820 5820 5820
5772 5778 5782 5786 5790 5793 5795 5799 5802 5805 5807 5810 5812 5814 5816 5817 5818 5819 5821 5822 5822 5823 5824 5824 5824 5824 5824 5824 5824 5824 5824 5823 5823 5823 5822 5821 5821 5821 5820 5819 5818 5818 5817 5817
5766 5771 5777 5780 5785 5788 5790 5793 5796 5800 5802 5805 5807 5809 5811 5812 5814 5815 5816 5817 5818 5818 5819 5819 5819 5820 5820 5820 5820 5820 5820 5820 5819 5819 5818 5818 5818 5817 5817 5816 5816 5815 5814 5814
5760 5764 5769 5773 5778 5781 5783 5787 5791 5795 5797 5799 5801 5803 5805 5807 5809 5810 5810 5811 5812 5813 5813 5814 5815 5815 5815 5815 5815 5815 5815 5815 5815 5815 5814 5813 5813 5813 5813 5812 5812 5811 5811 5810
5753 5758 5762 5767 5771 5775 5777 5781 5784 5787 5790 5792 5795 5797 5799 5801 5802 5804 5805 5805 5806 5807 5808 5808 5809 5809 5809 5810 5810 5810 5810 5810 5810 5810 5810 5809 5809 5809 5808 5808 5807 5807 5806 5806
5746 5751 5755 5760 5764 5767 5770 5774 5777 5780 5783 5786 5788 5791 5792 5794 5796 5797 5798 5799 5800 5801 5802 5802 5803 5803 5804 5804 5804 5805 5805 5805 5805 5805 5805 5804 5804 5804 5803 5803 5802 5802 5801 5801
5739 5744 5748 5752 5756 5760 5763 5767 5770 5773 5776 5779 5782 5784 5786 5788 5790 5791 5792 5793 5794 5795 5796 5796 5797 5797 5798 5798 5798 5799 5799 5799 5799 5799 5799 5799 5798 5798 5798 5797 5797 5797 5796 5795
5732 5737 5741 5745 5749 5752 5756 5759 5763 5766 5769 5772 5775 5777 5779 5781 5783 5784 5786 5787 5788 5789 5790 5791 5791 5792 5792 5792 5792 5793 5793 5793 5793 5793 5793 5792 5792 5792 5792 5791 5791 5790 5790 5789
5726 5730 5734 5738 5742 5746 5749 5752 5756 5759 5762 5765 5768 5770 5772 5774 5776 5778 5779 5781 5782 5783 5784 5784 5785 5785 5786 5786 5786 5787 5787 5787 5787 5787 5787 5787 5787 5786 5786 5786 5785 5784 5784 5783
Wind_Speed
22 21 19 19 18 18 17 17 17 17 15 14 13 12 12 11 11 11 11 11 12 12 12 13 13 13 14 14 14 14 13 13 13 15 16 16 16 15 16 17 17 18 18 17
23 22 21 21 20 19 18 18 18 18 17 15 14 13 13 13 12 12 12 12 12 13 13 13 13 14 15 15 15 16 15 13 13 14 16 17 18 17 17 16 17 18 18 18
24 24 23 22 21 19 19 19 20 19 17 16 14 14 14 13 12 12 12 13 14 13 14 14 14 15 15 15 16 16 15 13 13 14 16 17 18 19 18 18 18 18 20 20
27 25 24 23 21 20 20 20 21 20 17 17 14 13 15 13 13 13 13 14 15 15 15 15 15 15 15 15 16 16 16 14 14 14 15 16 17 18 18 18 19 19 20 20
26 25 25 24 22 22 22 21 21 20 19 17 16 13 14 14 13 13 13 14 15 15 15 15 15 15 15 15 16 16 16 15 14 14 15 15 16 18 18 18 18 19 19 20
28 26 26 25 24 23 22 21 20 19 18 18 16 14 14 14 13 13 14 14 14 15 15 14 15 15 14 15 15 15 14 14 14 14 14 14 15 18 19 18 17 18 19 19
28 27 26 25 25 24 22 20 19 19 19 18 17 15 15 14 13 14 14 13 14 14 14 14 13 14 14 15 14 14 12 11 12 12 12 13 15 16 17 17 18 18 19 19
27 27 26 25 24 23 22 21 19 17 16 16 17 16 15 14 13 13 13 14 13 14 14 13 13 13 13 13 12 11 10 10 10 11 11 11 13 14 16 17 18 18 19 19
26 27 25 25 25 25 24 22 20 19 18 15 16 16 14 13 13 13 13 13 13 13 13 12 12 12 12 11 9 9 8 8 9 9 9 10 11 12 14 16 19 19 19 20
27 26 25 25 26 26 24 22 22 20 18 15 16 15 14 13 12 13 13 13 12 12 11 11 11 11 10 9 8 7 7 8 8 8 9 10 11 12 13 14 16 18 19 20
27 26 26 25 25 25 24 23 22 20 19 15 13 14 14 13 13 12 11 12 12 11 11 10 10 9 8 8 8 8 8 8 8 8 9 10 11 12 13 14 14 16 18 18
27 26 25 25 24 24 23 22 21 20 19 17 14 15 15 13 13 12 11 11 12 11 11 10 9 9 8 7 7 7 8 8 8 9 9 10 10 11 11 12 13 15 17 18
28 27 26 25 25 25 24 23 21 19 18 17 14 15 15 14 14 13 12 11 11 10 10 9 8 8 7 7 8 7 7 8 8 8 9 10 10 10 11 12 13 15 17 18
27 26 25 22 21 22 23 22 21 19 18 17 15 16 16 15 14 13 13 12 11 10 10 9 9 9 9 8 8 8 8 8 8 8 8 9 10 10 11 11 13 14 16 17
27 27 26 25 24 22 21 21 21 20 19 18 17 17 16 16 15 14 14 13 12 11 11 10 9 9 10 9 9 9 9 9 9 9 9 10 10 10 11 11 13 14 16 17
27 27 26 25 25 23 22 21 21 21 20 19 18 18 17 16 15 15 14 14 14 13 12 12 11 11 11 10 10 10 10 10 10 11 11 11 11 10 11 12 12 14 16 18
27 26 26 25 25 24 24 23 22 21 19 19 19 18 17 16 15 15 15 15 15 14 14 14 14 13 12 12 11 11 11 11 12 12 12 11 11 11 12 12 12 14 15 17
28 27 26 26 26 25 25 24 23 23 22 20 20 19 18 17 17 16 15 15 16 15 14 14 15 15 14 14 14 14 13 13 13 13 13 14 13 13 13 13 14 13 14 15
30 28 27 26 25 26 27 24 23 23 22 20 20 20 20 18 18 17 16 16 16 16 16 16 16 16 16 15 15 16 15 15 15 15 15 14 15 14 15 15 14 14 14 15
31 29 29 28 25 25 27 24 24 24 23 22 21 20 20 20 20 19 18 18 18 18 18 19 18 18 18 18 17 17 17 17 17 17 16 16 15 15 16 16 15 15 15 16
33 31 30 28 27 27 27 24 24 25 24 23 22 22 21 21 21 20 20 20 20 20 20 20 21 21 20 20 19 19 18 18 18 18 18 18 17 17 18 18 17 18 18 18
33 32 31 29 27 28 27 25 26 25 24 24 23 23 22 22 22 21 21 22 21 21 21 21 21 21 21 21 21 20 20 19 19 19 20 20 19 19 19 19 19 19 19 20
33 33 31 31 30 29 27 26 26 25 25 25 24 23 23 23 23 22 23 22 21 21 21 21 21 21 22 22 22 21 21 21 21 21 21 22 22 21 21 21 20 20 20 20
31 31 31 31 31 29 28 28 28 27 27 27 26 25 25 24 23 23 23 22 22 21 21 20 20 21 22 22 22 22 23 23 23 22 22 22 23 23 23 23 22 22 21 21
29 29 29 30 30 30 30 29 28 28 28 28 27 26 25 25 24 23 22 22 22 21 21 21 22 22 22 22 22 23 23 23 23 23 22 22 23 23 23 23 23 23 22 23
29 29 29 30 29 29 28 28 28 28 28 27 27 26 26 25 24 24 23 23 23 22 22 22 22 22 23 23 23 23 23 22 23 23 23 23 24 23 24 24 24 23 23 23
Wind_Direction
242 242 243 243 243 244 247 249 254 260 264 265 267 269 272 275 278 276 277 276 274 277 285 289 290 297 302 305 305 308 294 284 268 256 252 248 247 244 240 237 236 232 229 229
240 240 239 240 242 245 246 247 252 258 261 263 267 269 271 273 278 275 274 274 275 275 282 286 289 292 298 301 301 305 298 285 273 262 256 252 247 244 238 237 236 232 226 225
239 238 238 240 242 244 244 244 248 255 261 262 265 271 272 274 277 276 274 274 276 277 280 284 290 292 296 298 300 301 299 287 277 268 261 252 245 240 241 239 240 233 230 227
236 236 236 238 240 241 242 243 246 251 255 259 261 262 272 273 275 274 272 274 277 278 279 282 287 291 295 296 297 298 298 287 276 269 260 254 246 241 240 239 236 231 228 226
236 236 235 236 237 238 239 242 245 249 251 254 260 256 266 273 270 269 271 273 273 275 277 282 285 288 291 292 296 300 295 285 275 269 264 255 250 243 239 238 236 231 227 227
233 233 232 233 235 236 238 240 245 249 252 253 257 258 262 268 266 266 270 272 272 277 277 281 285 287 289 292 296 298 293 282 269 264 260 255 249 242 240 238 237 232 228 227
235 234 233 233 234 235 235 237 242 246 250 254 257 256 256 261 260 264 270 272 275 276 277 280 285 286 288 293 295 295 285 280 269 266 264 253 243 238 239 239 237 233 230 229
234 234 234 233 233 235 234 234 235 240 249 254 258 254 257 260 260 265 266 270 273 274 277 280 283 284 286 292 293 293 285 276 268 262 260 249 242 240 241 239 235 234 233 233
229 232 232 231 230 231 232 231 231 237 240 241 254 257 258 259 259 261 263 269 271 271 275 281 284 287 289 290 290 292 284 280 269 260 255 246 242 245 244 241 236 235 234 231
225 228 229 228 229 229 229 229 229 231 237 240 252 259 262 258 256 259 264 268 271 271 272 277 281 286 289 290 289 290 290 280 277 267 254 250 250 249 244 238 236 238 234 230
221 224 227 227 228 229 228 228 229 230 233 235 248 257 256 254 254 259 261 267 267 270 270 273 276 282 288 293 289 285 289 283 276 269 262 258 255 251 248 249 244 237 233 231
219 219 225 227 228 227 227 228 230 232 237 236 235 252 254 252 253 256 262 266 268 269 270 271 271 276 281 291 294 291 289 285 283 274 265 262 258 255 256 254 246 237 234 235
218 220 222 226 228 227 227 228 229 230 237 239 237 249 252 250 252 255 262 265 265 267 268 264 263 266 275 287 293 292 292 289 284 283 276 268 261 261 261 255 244 240 236 235
218 220 219 224 232 232 229 229 230 229 232 237 236 241 249 245 247 253 258 260 260 261 262 260 261 262 271 282 289 290 290 292 289 284 283 275 267 265 265 258 246 240 238 236
217 220 219 219 224 228 229 229 230 229 229 233 241 242 242 242 245 250 254 256 256 256 257 259 264 267 271 276 279 280 281 285 285 283 284 281 275 270 269 261 250 244 242 241
218 219 220 222 224 226 227 228 229 231 231 233 237 240 239 242 244 246 250 251 252 254 254 256 260 267 270 275 277 275 278 281 284 283 283 283 279 274 270 266 258 249 246 245
218 218 218 222 223 226 229 229 231 234 235 235 236 237 240 241 241 246 248 248 251 253 253 256 260 262 267 273 275 275 274 275 279 281 281 279 276 276 275 270 260 253 249 246
218 217 218 220 223 225 230 230 231 233 235 236 236 235 236 239 241 246 248 248 249 252 254 255 259 263 266 270 273 275 273 272 277 277 279 278 274 275 275 274 271 261 252 248
218 218 219 221 225 228 232 231 231 233 235 234 234 234 235 239 244 246 247 249 252 252 253 256 260 265 268 270 272 273 272 272 276 275 276 275 272 273 272 275 272 264 259 256
217 219 222 222 223 231 236 230 230 232 234 232 234 236 237 240 244 246 248 251 252 254 255 255 258 262 265 270 272 272 269 270 271 272 273 274 271 273 274 273 272 269 266 262
218 220 223 226 227 232 233 228 228 230 232 232 235 237 238 240 243 245 247 251 254 256 257 256 257 259 264 267 267 267 266 268 269 271 273 272 270 270 270 271 270 269 266 267
218 222 224 226 229 234 232 228 228 230 231 233 236 238 240 242 244 245 248 251 253 254 257 257 257 259 262 264 266 265 265 267 267 269 271 270 269 271 271 271 270 269 268 268
219 222 225 227 229 233 233 231 232 232 233 234 237 239 242 244 246 248 249 249 251 255 257 257 259 259 262 264 264 264 264 265 267 268 268 268 268 269 270 272 273 272 272 273
221 223 227 230 232 233 234 234 235 235 235 235 237 240 243 246 249 249 248 249 252 255 256 258 259 260 262 262 262 261 263 264 265 266 266 266 268 268 269 273 272 273 276 278
223 224 227 229 231 232 234 234 234 234 235 236 238 242 246 248 249 247 247 249 251 253 256 258 259 259 261 262 262 262 262 263 264 266 267 270 269 271 273 272 273 274 278 278
223 223 224 227 229 229 231 233 233 233 234 236 240 243 245 246 246 247 248 250 251 254 257 258 259 260 261 262 262 263 264 264 266 267 269 269 269 271 272 273 274 273 274 275